| time (UTC) | temp C | wind direction | speed KPH | gust KPH | rain 1hr cm | rain 24hr cm | rain mn cm | humidity % | barometer mb |
| 20260510213001 | 8 | 98 | 0.0 | 3.2 | 0.00 | 0.00 | 0.00 | 69 | 1016.6 |
| 20260510211505 | 9 | 123 | 0.0 | 3.2 | 0.00 | 0.00 | 0.00 | 68 | 1016.5 |
| 20260510210016 | 10 | 102 | 0.0 | 3.2 | 0.00 | 0.00 | 0.00 | 65 | 1016.6 |
| 20260510204502 | 10 | 74 | 1.6 | 4.8 | 0.00 | 0.00 | 0.00 | 62 | 1016.6 |
| 20260510203002 | 11 | 52 | 3.2 | 6.4 | 0.00 | 0.00 | 0.00 | 62 | 1016.6 |
| 20260510201501 | 11 | 63 | 0.0 | 3.2 | 0.00 | 0.00 | 0.00 | 61 | 1016.6 |
| 20260510200003 | 12 | 52 | 1.6 | 4.8 | 0.00 | 0.00 | 0.00 | 57 | 1016.7 |
| 20260510194501 | 12 | 78 | 0.0 | 6.4 | 0.00 | 0.00 | 0.00 | 54 | 1016.6 |
| 20260510193005 | 13 | 51 | 0.0 | 4.8 | 0.00 | 0.00 | 0.00 | 52 | 1016.4 |
| 20260510191501 | 13 | 339 | 4.8 | 14.5 | 0.00 | 0.00 | 0.00 | 51 | 1016.6 |
| 20260510190004 | 13 | 360 | 6.4 | 16.1 | 0.00 | 0.00 | 0.00 | 50 | 1016.6 |
| 20260510184502 | 14 | 355 | 6.4 | 14.5 | 0.00 | 0.00 | 0.00 | 48 | 1016.5 |
| 20260510183002 | 14 | 360 | 9.7 | 24.1 | 0.00 | 0.00 | 0.00 | 48 | 1016.6 |
| 20260510181501 | 14 | 44 | 8.0 | 19.3 | 0.00 | 0.00 | 0.00 | 48 | 1016.6 |
| 20260510180005 | 15 | 67 | 11.3 | 20.9 | 0.00 | 0.00 | 0.00 | 47 | 1016.7 |
| 20260510174502 | 15 | 333 | 9.7 | 22.5 | 0.00 | 0.00 | 0.00 | 49 | 1016.7 |
| 20260510173002 | 15 | 5 | 11.3 | 22.5 | 0.00 | 0.00 | 0.00 | 49 | 1016.9 |
| 20260510171504 | 15 | 31 | 4.8 | 19.3 | 0.00 | 0.00 | 0.00 | 51 | 1016.7 |
| 20260510170003 | 15 | 5 | 9.7 | 16.1 | 0.00 | 0.00 | 0.00 | 51 | 1017.0 |
| 20260510164501 | 15 | 14 | 9.7 | 20.9 | 0.00 | 0.00 | 0.00 | 52 | 1017.1 |
| 20260510163002 | 15 | 53 | 8.0 | 22.5 | 0.00 | 0.00 | 0.00 | 52 | 1017.2 |
| 20260510161501 | 15 | 360 | 4.8 | 16.1 | 0.00 | 0.00 | 0.00 | 54 | 1017.2 |
| 20260510160008 | 15 | 30 | 12.9 | 25.7 | 0.00 | 0.00 | 0.00 | 52 | 1017.5 |
| 20260510154501 | 15 | 38 | 6.4 | 22.5 | 0.00 | 0.00 | 0.00 | 55 | 1017.6 |
| 20260510153001 | 15 | 44 | 6.4 | 20.9 | 0.00 | 0.00 | 0.00 | 57 | 1017.7 |
| 20260510151501 | 15 | 54 | 8.0 | 22.5 | 0.00 | 0.00 | 0.00 | 58 | 1017.8 |
| 20260510150006 | 15 | 24 | 4.8 | 20.9 | 0.00 | 0.00 | 0.00 | 59 | 1018.0 |
| 20260510144505 | 15 | 360 | 8.0 | 22.5 | 0.00 | 0.00 | 0.00 | 59 | 1018.1 |
| 20260510143006 | 15 | 45 | 9.7 | 20.9 | 0.00 | 0.00 | 0.00 | 60 | 1018.4 |
| 20260510141502 | 15 | 55 | 12.9 | 19.3 | 0.00 | 0.00 | 0.00 | 59 | 1018.4 |
| 20260510140003 | 15 | 9 | 9.7 | 17.7 | 0.00 | 0.00 | 0.00 | 59 | 1018.6 |
| 20260510134501 | 15 | 49 | 9.7 | 20.9 | 0.00 | 0.00 | 0.00 | 58 | 1018.6 |
| 20260510133001 | 15 | 337 | 6.4 | 17.7 | 0.00 | 0.00 | 0.00 | 61 | 1018.6 |
| 20260510131502 | 15 | 32 | 8.0 | 19.3 | 0.00 | 0.00 | 0.00 | 59 | 1018.7 |
| 20260510130003 | 15 | 338 | 9.7 | 22.5 | 0.00 | 0.00 | 0.00 | 61 | 1018.9 |
| 20260510124501 | 13 | 26 | 11.3 | 25.7 | 0.00 | 0.00 | 0.00 | 65 | 1019.2 |
| 20260510123001 | 15 | 26 | 12.9 | 25.7 | 0.00 | 0.00 | 0.00 | 62 | 1019.1 |
| 20260510121501 | 13 | 355 | 11.3 | 22.5 | 0.00 | 0.00 | 0.00 | 65 | 1019.4 |
| 20260510120005 | 14 | 360 | 14.5 | 25.7 | 0.00 | 0.00 | 0.00 | 64 | 1019.4 |
| 20260510114503 | 13 | 15 | 14.5 | 22.5 | 0.00 | 0.00 | 0.00 | 67 | 1019.7 |
| 20260510113001 | 13 | 5 | 12.9 | 25.7 | 0.00 | 0.00 | 0.00 | 67 | 1019.7 |
| 20260510111501 | 13 | 342 | 14.5 | 27.4 | 0.00 | 0.00 | 0.00 | 66 | 1019.7 |
| 20260510110009 | 13 | 343 | 11.3 | 27.4 | 0.00 | 0.00 | 0.00 | 68 | 1019.8 |
| 20260510104502 | 13 | 5 | 14.5 | 24.1 | 0.00 | 0.00 | 0.00 | 68 | 1019.8 |
| 20260510103001 | 12 | 23 | 8.0 | 20.9 | 0.00 | 0.00 | 0.00 | 70 | 1019.8 |
| 20260510101500 | 12 | 336 | 12.9 | 24.1 | 0.00 | 0.00 | 0.00 | 71 | 1019.9 |
| 20260510100003 | 12 | 360 | 8.0 | 20.9 | 0.00 | 0.00 | 0.00 | 72 | 1020.0 |
| 20260510094500 | 11 | 344 | 11.3 | 20.9 | 0.00 | 0.00 | 0.00 | 72 | 1020.0 |
| 20260510093003 | 11 | 349 | 9.7 | 24.1 | 0.00 | 0.00 | 0.00 | 73 | 1020.1 |
| 20260510091501 | 11 | 13 | 12.9 | 27.4 | 0.00 | 0.00 | 0.00 | 73 | 1020.2 |
| 20260510090003 | 11 | 57 | 11.3 | 27.4 | 0.00 | 0.00 | 0.00 | 74 | 1020.1 |
| 20260510084501 | 11 | 11 | 8.0 | 19.3 | 0.00 | 0.00 | 0.00 | 74 | 1020.1 |
| 20260510083000 | 11 | 355 | 8.0 | 17.7 | 0.00 | 0.00 | 0.00 | 75 | 1020.1 |
| 20260510081501 | 11 | 35 | 11.3 | 20.9 | 0.00 | 0.00 | 0.00 | 75 | 1020.1 |
| 20260510080003 | 10 | 34 | 9.7 | 24.1 | 0.00 | 0.00 | 0.00 | 76 | 1020.1 |
| 20260510074501 | 10 | 360 | 11.3 | 20.9 | 0.00 | 0.00 | 0.00 | 77 | 1020.0 |
| 20260510073000 | 10 | 11 | 6.4 | 25.7 | 0.00 | 0.00 | 0.00 | 77 | 1020.0 |
| 20260510071602 | 10 | 17 | 9.7 | 19.3 | 0.00 | 0.00 | 0.00 | 77 | 1019.8 |
| 20260510071500 | 10 | 360 | 9.7 | 19.3 | 0.00 | 0.00 | 0.00 | 77 | 1019.9 |
| 20260510070003 | 10 | 5 | 4.8 | 16.1 | 0.00 | 0.00 | 0.00 | 77 | 1019.8 |
| 20260510064500 | 10 | 360 | 9.7 | 22.5 | 0.00 | 0.00 | 0.00 | 77 | 1019.8 |
| 20260510063001 | 10 | 5 | 9.7 | 20.9 | 0.00 | 0.00 | 0.00 | 77 | 1019.6 |
| 20260510061501 | 10 | 57 | 4.8 | 14.5 | 0.00 | 0.00 | 0.00 | 76 | 1019.7 |
| 20260510060002 | 10 | 14 | 8.0 | 14.5 | 0.00 | 0.00 | 0.00 | 76 | 1019.4 |
| 20260510054501 | 10 | 15 | 11.3 | 20.9 | 0.00 | 0.00 | 0.00 | 76 | 1019.4 |
| 20260510053000 | 10 | 30 | 4.8 | 20.9 | 0.00 | 0.00 | 0.00 | 75 | 1019.4 |
| 20260510051502 | 10 | 11 | 6.4 | 20.9 | 0.00 | 0.00 | 0.00 | 75 | 1019.3 |
| 20260510050001 | 10 | 24 | 3.2 | 17.7 | 0.00 | 0.00 | 0.00 | 75 | 1019.4 |
| 20260510044602 | 10 | 355 | 6.4 | 17.7 | 0.00 | 0.00 | 0.00 | 75 | 1019.3 |
| 20260510043101 | 11 | 355 | 8.0 | 24.1 | 0.00 | 0.00 | 0.00 | 74 | 1019.3 |
| 20260510041559 | 11 | 17 | 11.3 | 17.7 | 0.00 | 0.00 | 0.00 | 74 | 1019.3 |
| 20260510040103 | 11 | 26 | 9.7 | 19.3 | 0.00 | 0.00 | 0.00 | 74 | 1019.3 |
| 20260510040001 | 11 | 350 | 9.7 | 19.3 | 0.00 | 0.00 | 0.00 | 74 | 1019.3 |
| 20260510034610 | 11 | 348 | 8.0 | 19.3 | 0.00 | 0.00 | 0.00 | 73 | 1019.3 |
| 20260510033119 | 11 | 28 | 4.8 | 16.1 | 0.00 | 0.00 | 0.00 | 73 | 1019.5 |
| 20260510031601 | 11 | 17 | 6.4 | 19.3 | 0.00 | 0.00 | 0.00 | 73 | 1019.4 |
| 20260510030059 | 11 | 25 | 6.4 | 17.7 | 0.00 | 0.00 | 0.00 | 73 | 1019.3 |
| 20260510030004 | 11 | 17 | 8.0 | 17.7 | 0.00 | 0.00 | 0.00 | 73 | 1019.3 |
| 20260510024603 | 11 | 13 | 8.0 | 20.9 | 0.00 | 0.00 | 0.00 | 72 | 1019.5 |
| 20260510023059 | 12 | 30 | 6.4 | 16.1 | 0.00 | 0.00 | 0.00 | 71 | 1019.5 |
| 20260510021603 | 12 | 10 | 11.3 | 19.3 | 0.00 | 0.00 | 0.00 | 68 | 1019.4 |
| 20260510020059 | 12 | 44 | 8.0 | 16.1 | 0.00 | 0.00 | 0.00 | 68 | 1019.5 |
| 20260510020001 | 12 | 5 | 8.0 | 16.1 | 0.00 | 0.00 | 0.00 | 68 | 1019.5 |
| 20260510014559 | 12 | 73 | 6.4 | 11.3 | 0.00 | 0.00 | 0.00 | 69 | 1019.5 |
| 20260510013100 | 12 | 40 | 4.8 | 12.9 | 0.00 | 0.00 | 0.00 | 70 | 1019.5 |
| 20260510011600 | 12 | 339 | 8.0 | 24.1 | 0.00 | 0.00 | 0.00 | 72 | 1019.4 |
| 20260510010001 | 12 | 350 | 8.0 | 27.4 | 0.00 | 0.00 | 0.00 | 73 | 1019.2 |
| 20260510004602 | 12 | 360 | 12.9 | 22.5 | 0.00 | 0.00 | 0.00 | 73 | 1019.2 |
| 20260510003120 | 13 | 329 | 12.9 | 22.5 | 0.00 | 0.00 | 0.00 | 73 | 1019.3 |
| 20260510001559 | 13 | 20 | 11.3 | 20.9 | 0.00 | 0.00 | 0.00 | 72 | 1019.2 |
| 20260510000105 | 13 | 348 | 9.7 | 22.5 | 0.00 | 0.00 | 0.00 | 73 | 1019.3 |
| 20260510000004 | 13 | 19 | 9.7 | 22.5 | 0.00 | 0.00 | 0.00 | 73 | 1019.3 |
| 20260509234508 | 13 | 36 | 8.0 | 19.3 | 0.00 | 0.00 | 0.00 | 73 | 1019.3 |
| 20260509233002 | 13 | 74 | 6.4 | 16.1 | 0.00 | 0.00 | 0.00 | 74 | 1019.3 |
| 20260509231502 | 13 | 26 | 6.4 | 14.5 | 0.00 | 0.00 | 0.00 | 74 | 1019.3 |
| 20260509230012 | 13 | 24 | 4.8 | 11.3 | 0.00 | 0.00 | 0.00 | 74 | 1019.2 |
| 20260509224502 | 13 | 23 | 6.4 | 17.7 | 0.00 | 0.00 | 0.00 | 73 | 1019.2 |
| 20260509223003 | 13 | 46 | 6.4 | 20.9 | 0.00 | 0.00 | 0.00 | 74 | 1019.3 |
| 20260509221504 | 13 | 5 | 3.2 | 12.9 | 0.00 | 0.00 | 0.00 | 74 | 1019.3 |
| 20260509220003 | 13 | 334 | 6.4 | 19.3 | 0.00 | 0.00 | 0.00 | 73 | 1019.3 |
| 20260509214501 | 13 | 5 | 8.0 | 19.3 | 0.00 | 0.00 | 0.00 | 73 | 1019.3 |